Precipitable_Water
0.81 0.82 0.85 0.89 0.93 0.98 1.03 1.07 1.10 1.08 1.10 1.12 1.06 1.02 0.98 0.97 0.98 0.99 1.00 1.01 1.04 1.06 1.04 1.02 0.97 0.94 0.89 0.82 0.83 0.84 0.82 0.83 0.83 0.89 0.97 1.01 1.00 0.97 1.00 0.96 0.92 0.90 0.86 0.78 0.75 0.69 0.52 0.27 0.16 0.27 0.34 0.43
0.70 0.73 0.74 0.77 0.82 0.88 0.93 0.98 1.01 1.04 1.07 1.09 1.06 0.99 1.00 1.01 0.98 0.97 0.97 0.98 0.99 1.00 1.02 1.01 0.98 0.96 0.93 0.90 0.83 0.82 0.83 0.81 0.81 0.86 0.95 0.98 0.99 0.97 0.98 0.98 0.93 0.90 0.87 0.82 0.77 0.72 0.63 0.41 0.16 0.16 0.27 0.37
0.56 0.62 0.63 0.67 0.74 0.81 0.85 0.91 0.95 0.96 0.97 0.98 0.99 0.99 0.95 0.96 0.98 0.99 0.97 0.97 0.98 1.01 0.99 0.97 0.97 0.95 0.90 0.91 0.89 0.83 0.82 0.81 0.81 0.82 0.91 0.96 0.98 1.01 1.00 0.98 0.96 0.90 0.87 0.83 0.79 0.74 0.69 0.53 0.22 0.15 0.17 0.25
0.50 0.52 0.54 0.57 0.62 0.67 0.76 0.82 0.83 0.89 0.92 0.92 0.92 0.88 0.86 0.88 0.92 0.92 0.93 0.94 0.93 0.93 0.94 0.92 0.94 0.92 0.89 0.87 0.90 0.87 0.82 0.79 0.81 0.82 0.86 0.94 0.97 1.01 0.99 0.98 0.99 0.92 0.87 0.85 0.81 0.76 0.68 0.56 0.36 0.15 0.15 0.20
0.45 0.46 0.49 0.52 0.54 0.56 0.60 0.67 0.74 0.76 0.77 0.86 0.87 0.82 0.80 0.79 0.81 0.84 0.88 0.88 0.90 0.91 0.91 0.92 0.94 0.95 0.88 0.85 0.86 0.89 0.85 0.80 0.78 0.80 0.81 0.89 0.93 0.98 1.00 0.98 0.98 0.93 0.88 0.84 0.80 0.76 0.67 0.57 0.52 0.31 0.19 0.20
0.41 0.42 0.44 0.46 0.48 0.50 0.52 0.53 0.58 0.63 0.68 0.72 0.76 0.79 0.78 0.78 0.78 0.78 0.81 0.85 0.86 0.89 0.90 0.91 0.92 0.95 0.97 0.90 0.84 0.82 0.84 0.83 0.79 0.75 0.77 0.84 0.90 0.94 0.98 0.97 0.97 0.93 0.88 0.83 0.77 0.74 0.67 0.59 0.53 0.49 0.34 0.28
0.36 0.38 0.39 0.41 0.44 0.45 0.47 0.48 0.50 0.52 0.54 0.58 0.61 0.67 0.76 0.81 0.85 0.84 0.81 0.81 0.85 0.87 0.89 0.90 0.92 0.93 0.94 0.99 0.92 0.83 0.80 0.81 0.79 0.74 0.73 0.78 0.86 0.91 0.95 0.98 0.96 0.94 0.90 0.85 0.76 0.70 0.66 0.59 0.56 0.54 0.45 0.37
0.31 0.33 0.35 0.36 0.40 0.43 0.43 0.44 0.45 0.46 0.48 0.49 0.51 0.55 0.63 0.73 0.77 0.83 0.84 0.82 0.81 0.84 0.85 0.86 0.90 0.93 0.91 0.92 0.92 0.88 0.82 0.78 0.77 0.75 0.75 0.77 0.83 0.85 0.89 0.94 0.96 0.93 0.89 0.84 0.75 0.69 0.62 0.58 0.57 0.55 0.50 0.45
0.28 0.28 0.29 0.31 0.34 0.37 0.39 0.42 0.41 0.42 0.43 0.44 0.45 0.46 0.51 0.57 0.66 0.73 0.79 0.83 0.83 0.81 0.82 0.85 0.86 0.92 0.93 0.91 0.87 0.89 0.85 0.80 0.75 0.74 0.72 0.74 0.76 0.82 0.85 0.88 0.92 0.92 0.87 0.82 0.74 0.68 0.62 0.57 0.56 0.55 0.52 0.47
0.26 0.26 0.26 0.25 0.28 0.31 0.34 0.37 0.38 0.40 0.42 0.42 0.43 0.44 0.44 0.45 0.51 0.58 0.68 0.73 0.78 0.80 0.81 0.82 0.83 0.85 0.89 0.93 0.89 0.89 0.83 0.82 0.79 0.74 0.72 0.72 0.70 0.75 0.81 0.84 0.87 0.89 0.86 0.79 0.74 0.71 0.64 0.58 0.55 0.54 0.54 0.52
0.23 0.25 0.26 0.25 0.26 0.26 0.28 0.31 0.32 0.34 0.37 0.39 0.40 0.41 0.42 0.42 0.43 0.46 0.51 0.58 0.66 0.75 0.79 0.79 0.79 0.80 0.85 0.85 0.87 0.90 0.86 0.81 0.80 0.77 0.73 0.71 0.71 0.71 0.75 0.80 0.84 0.85 0.83 0.79 0.74 0.70 0.66 0.61 0.57 0.55 0.53 0.52
0.21 0.22 0.24 0.24 0.24 0.24 0.26 0.29 0.29 0.30 0.31 0.33 0.35 0.36 0.38 0.40 0.40 0.41 0.43 0.47 0.51 0.58 0.70 0.76 0.79 0.79 0.82 0.84 0.86 0.88 0.88 0.83 0.78 0.76 0.75 0.73 0.72 0.70 0.71 0.74 0.79 0.82 0.80 0.78 0.74 0.70 0.66 0.62 0.59 0.57 0.54 0.51
0.20 0.21 0.22 0.22 0.21 0.22 0.24 0.25 0.27 0.28 0.29 0.28 0.29 0.31 0.33 0.34 0.35 0.37 0.38 0.40 0.43 0.47 0.52 0.62 0.74 0.79 0.81 0.83 0.85 0.90 0.88 0.86 0.82 0.77 0.74 0.73 0.72 0.72 0.70 0.71 0.73 0.77 0.77 0.76 0.73 0.68 0.65 0.62 0.60 0.57 0.54 0.52
0.20 0.21 0.21 0.21 0.20 0.21 0.22 0.23 0.25 0.27 0.26 0.26 0.27 0.27 0.27 0.28 0.30 0.32 0.34 0.36 0.39 0.40 0.42 0.47 0.54 0.67 0.76 0.79 0.83 0.87 0.88 0.90 0.86 0.83 0.78 0.75 0.73 0.72 0.71 0.69 0.71 0.73 0.73 0.73 0.72 0.69 0.65 0.62 0.60 0.58 0.55 0.52
0.21 0.21 0.21 0.21 0.20 0.20 0.20 0.22 0.24 0.25 0.25 0.24 0.24 0.24 0.25 0.25 0.25 0.26 0.28 0.31 0.34 0.36 0.38 0.40 0.44 0.49 0.61 0.72 0.78 0.83 0.86 0.91 0.90 0.87 0.83 0.81 0.75 0.71 0.72 0.70 0.71 0.71 0.70 0.70 0.70 0.69 0.66 0.63 0.61 0.58 0.56 0.54
0.21 0.21 0.22 0.21 0.21 0.21 0.21 0.21 0.22 0.23 0.24 0.23 0.23 0.24 0.24 0.23 0.24 0.24 0.24 0.25 0.27 0.31 0.34 0.36 0.38 0.42 0.47 0.55 0.68 0.77 0.81 0.85 0.90 0.90 0.88 0.83 0.81 0.79 0.74 0.73 0.72 0.71 0.70 0.68 0.68 0.69 0.67 0.66 0.62 0.59 0.57 0.54
0.22 0.22 0.22 0.22 0.22 0.22 0.22 0.22 0.23 0.23 0.22 0.22 0.22 0.23 0.23 0.23 0.23 0.22 0.22 0.24 0.24 0.25 0.27 0.30 0.33 0.36 0.40 0.46 0.51 0.64 0.73 0.76 0.83 0.87 0.88 0.86 0.84 0.82 0.80 0.75 0.73 0.72 0.70 0.68 0.67 0.68 0.68 0.66 0.63 0.62 0.58 0.55
0.23 0.23 0.23 0.23 0.23 0.23 0.23 0.23 0.23 0.23 0.23 0.23 0.23 0.23 0.22 0.21 0.21 0.22 0.23 0.22 0.24 0.25 0.25 0.25 0.28 0.31 0.33 0.39 0.44 0.49 0.60 0.67 0.73 0.79 0.83 0.84 0.84 0.82 0.79 0.76 0.75 0.73 0.68 0.67 0.68 0.67 0.68 0.67 0.65 0.63 0.59 0.56
0.25 0.25 0.25 0.24 0.24 0.24 0.25 0.25 0.25 0.24 0.24 0.24 0.24 0.23 0.22 0.21 0.21 0.21 0.21 0.22 0.23 0.23 0.24 0.23 0.24 0.25 0.29 0.32 0.38 0.44 0.48 0.56 0.64 0.72 0.78 0.81 0.80 0.81 0.79 0.78 0.77 0.74 0.72 0.68 0.65 0.65 0.66 0.66 0.66 0.64 0.61 0.59
0.26 0.26 0.25 0.25 0.25 0.24 0.24 0.25 0.26 0.25 0.25 0.24 0.24 0.23 0.23 0.22 0.22 0.22 0.22 0.21 0.22 0.23 0.23 0.23 0.23 0.24 0.26 0.29 0.32 0.38 0.44 0.48 0.53 0.62 0.69 0.77 0.80 0.77 0.77 0.77 0.76 0.77 0.76 0.74 0.69 0.66 0.65 0.65 0.65 0.63 0.62 0.60
0.24 0.24 0.23 0.23 0.23 0.22 0.22 0.23 0.24 0.25 0.25 0.24 0.23 0.23 0.22 0.23 0.23 0.23 0.23 0.22 0.22 0.22 0.23 0.23 0.23 0.23 0.24 0.26 0.29 0.31 0.37 0.43 0.48 0.52 0.61 0.68 0.76 0.77 0.74 0.76 0.75 0.76 0.76 0.76 0.76 0.70 0.65 0.64 0.63 0.62 0.62 0.62
0.22 0.22 0.22 0.22 0.21 0.22 0.22 0.22 0.23 0.24 0.24 0.24 0.24 0.23 0.22 0.22 0.22 0.23 0.25 0.24 0.23 0.22 0.22 0.23 0.23 0.24 0.25 0.26 0.26 0.28 0.31 0.37 0.43 0.48 0.53 0.58 0.67 0.73 0.72 0.71 0.73 0.72 0.75 0.75 0.76 0.75 0.70 0.65 0.64 0.62 0.62 0.63
0.23 0.23 0.22 0.22 0.22 0.22 0.22 0.22 0.22 0.21 0.21 0.22 0.22 0.22 0.23 0.23 0.23 0.23 0.24 0.24 0.24 0.23 0.22 0.22 0.23 0.23 0.25 0.26 0.25 0.25 0.26 0.30 0.36 0.41 0.47 0.51 0.58 0.66 0.71 0.72 0.73 0.73 0.75 0.74 0.74 0.75 0.75 0.73 0.68 0.65 0.63 0.63
0.23 0.22 0.21 0.21 0.21 0.21 0.21 0.22 0.21 0.21 0.20 0.19 0.19 0.20 0.21 0.23 0.25 0.25 0.25 0.25 0.24 0.24 0.23 0.22 0.22 0.22 0.24 0.25 0.26 0.25 0.23 0.24 0.29 0.35 0.39 0.44 0.50 0.57 0.63 0.69 0.73 0.74 0.73 0.74 0.73 0.72 0.74 0.75 0.73 0.69 0.65 0.62
0.22 0.21 0.21 0.21 0.21 0.19 0.20 0.19 0.20 0.19 0.18 0.18 0.18 0.19 0.20 0.21 0.24 0.25 0.25 0.26 0.26 0.25 0.25 0.24 0.23 0.22 0.22 0.25 0.26 0.25 0.24 0.24 0.25 0.31 0.36 0.40 0.45 0.49 0.54 0.60 0.68 0.71 0.73 0.69 0.67 0.70 0.69 0.70 0.73 0.72 0.68 0.64
0.21 0.21 0.21 0.21 0.20 0.19 0.19 0.18 0.18 0.18 0.18 0.19 0.19 0.19 0.20 0.21 0.22 0.24 0.24 0.25 0.26 0.26 0.26 0.24 0.23 0.22 0.22 0.23 0.24 0.25 0.26 0.26 0.26 0.27 0.31 0.36 0.38 0.44 0.47 0.53 0.62 0.67 0.68 0.62 0.61 0.60 0.59 0.61 0.66 0.69 0.68 0.65
0.20 0.21 0.21 0.21 0.20 0.19 0.18 0.19 0.19 0.19 0.20 0.20 0.20 0.20 0.21 0.22 0.23 0.24 0.24 0.25 0.26 0.25 0.25 0.25 0.24 0.23 0.23 0.23 0.24 0.24 0.25 0.25 0.25 0.25 0.27 0.31 0.34 0.37 0.44 0.46 0.56 0.62 0.66 0.58 0.62 0.64 0.60 0.55 0.54 0.61 0.64 0.65
0.19 0.20 0.21 0.21 0.20 0.19 0.19 0.17 0.19 0.19 0.19 0.19 0.19 0.20 0.21 0.23 0.23 0.23 0.24 0.25 0.25 0.25 0.25 0.25 0.24 0.24 0.24 0.24 0.25 0.25 0.24 0.24 0.24 0.24 0.25 0.28 0.32 0.35 0.35 0.41 0.45 0.56 0.62 0.62 0.59 0.51 0.53 0.54 0.56 0.50 0.54 0.58
0.19 0.20 0.20 0.20 0.20 0.20 0.18 0.18 0.17 0.17 0.17 0.18 0.19 0.20 0.21 0.21 0.21 0.23 0.24 0.24 0.25 0.24 0.24 0.25 0.25 0.25 0.25 0.25 0.26 0.27 0.26 0.25 0.25 0.25 0.25 0.27 0.29 0.31 0.32 0.35 0.42 0.48 0.55 0.60 0.64 0.58 0.53 0.50 0.49 0.51 0.53 0.58
0.22 0.22 0.22 0.22 0.20 0.18 0.17 0.16 0.15 0.15 0.15 0.16 0.17 0.19 0.21 0.21 0.22 0.23 0.25 0.26 0.26 0.26 0.26 0.26 0.26 0.26 0.26 0.26 0.26 0.27 0.27 0.27 0.27 0.26 0.26 0.25 0.26 0.29 0.33 0.33 0.37 0.42 0.50 0.55 0.60 0.62 0.61 0.58 0.51 0.51 0.55 0.56
0.19 0.20 0.23 0.23 0.23 0.21 0.20 0.18 0.17 0.17 0.17 0.17 0.19 0.21 0.21 0.21 0.23 0.24 0.24 0.24 0.26 0.27 0.27 0.27 0.27 0.27 0.26 0.26 0.27 0.27 0.28 0.27 0.27 0.27 0.26 0.26 0.26 0.28 0.31 0.34 0.32 0.37 0.43 0.49 0.53 0.58 0.60 0.60 0.60 0.60 0.55 0.51
Wind_Speed
24 25 26 26 27 27 28 29 29 30 29 29 30 32 32 33 33 33 34 34 34 34 34 34 34 34 34 34 34 34 34 34 35 35 35 35 35 34 33 33 33 32 32 31 30 30 30 30 32 33 33 33
23 24 25 25 26 26 27 28 29 29 29 29 29 31 32 33 33 33 34 34 35 35 35 35 35 35 34 34 35 35 35 35 36 36 36 36 36 35 35 34 34 34 33 32 32 31 31 30 32 33 34 34
23 23 24 25 25 26 26 27 28 29 30 30 30 30 31 32 33 34 34 35 35 35 36 36 36 36 35 35 35 35 35 36 36 36 36 36 36 36 36 35 35 34 34 33 32 32 32 31 32 32 33 34
23 23 24 24 25 25 26 27 28 29 29 30 30 31 32 32 33 34 34 35 35 36 36 37 37 37 37 36 36 36 36 37 37 37 38 37 37 37 37 36 36 35 34 33 33 33 33 32 32 32 33 33
24 24 24 25 25 25 26 26 27 27 28 29 30 31 32 33 33 34 35 35 36 36 37 37 38 38 38 38 37 37 37 37 37 38 39 38 38 38 38 37 37 36 35 34 34 34 33 33 33 33 33 33
25 25 26 26 26 27 27 27 27 27 28 28 29 30 32 33 33 34 35 36 36 37 37 38 39 39 39 39 39 38 38 38 38 38 39 39 39 39 39 39 38 37 36 35 34 34 34 34 34 34 34 34
26 26 26 27 28 28 28 28 29 29 29 29 29 30 30 31 32 34 34 35 36 37 37 38 39 40 40 40 40 39 39 39 38 38 39 40 40 40 40 40 39 38 37 36 35 35 35 35 35 35 35 35
26 27 27 28 28 29 29 30 30 30 30 30 30 30 30 30 31 32 34 34 36 36 37 38 38 39 41 41 41 41 40 40 40 39 40 40 40 41 41 41 40 39 39 38 37 36 37 37 37 37 36 36
28 28 28 28 29 29 30 30 31 31 31 31 31 31 31 31 31 32 33 34 35 36 37 38 38 39 40 41 42 42 42 41 41 41 41 41 41 41 41 41 41 40 40 39 38 38 38 38 38 38 38 38
29 29 29 29 30 30 31 31 31 32 32 32 33 33 33 33 32 33 33 34 35 35 36 37 38 38 39 40 42 43 43 43 42 42 42 42 41 42 41 41 42 41 41 40 40 39 39 39 39 40 40 39
30 30 31 31 31 31 31 32 32 33 33 34 34 34 35 35 35 34 34 35 35 36 36 37 38 39 39 40 41 43 44 44 44 44 43 43 43 43 42 42 42 42 42 42 41 41 41 41 41 41 41 41
31 32 32 32 32 32 33 33 33 34 34 34 35 36 36 37 37 37 37 37 36 37 37 38 38 39 39 41 42 42 43 45 45 45 45 44 43 43 44 43 43 43 43 43 43 42 42 42 42 42 42 42
33 33 34 34 34 34 34 35 35 35 35 35 36 36 37 38 39 39 40 40 40 39 39 39 39 40 40 40 41 42 43 44 45 46 46 45 45 44 45 44 44 44 44 44 44 44 44 44 44 43 43 43
34 35 35 36 37 37 37 37 37 37 37 37 38 38 38 39 40 41 42 42 42 42 42 42 42 42 41 41 42 42 43 44 45 45 46 46 46 46 46 46 46 45 45 45 45 45 45 45 45 45 44 44
36 37 37 38 38 39 39 39 39 40 40 40 40 41 41 41 42 42 43 43 44 44 45 45 45 44 44 43 43 43 43 44 46 46 47 47 47 48 48 47 47 47 47 46 46 46 46 46 46 46 46 45
39 39 39 40 40 41 41 42 43 43 43 43 43 44 44 44 45 45 45 45 45 45 46 46 47 47 46 46 45 44 44 44 46 47 48 48 48 49 49 49 49 48 48 48 48 47 47 47 48 48 47 46
40 41 42 42 43 44 44 45 45 46 46 47 47 47 48 48 48 48 48 48 47 47 47 47 48 48 48 48 48 47 46 45 46 47 48 49 50 49 49 50 50 50 49 49 49 49 48 48 48 49 48 47
42 43 44 44 45 46 47 47 47 48 49 50 50 51 51 52 52 51 51 51 50 49 49 48 48 49 50 50 50 50 49 48 46 46 47 48 50 51 50 51 51 51 51 50 50 50 49 49 49 49 49 49
44 45 46 46 47 48 49 49 50 51 51 52 53 53 54 54 54 54 53 53 52 52 52 51 50 50 50 51 51 51 51 51 49 48 47 47 49 51 52 52 52 52 52 51 51 51 51 50 50 50 50 50
47 48 48 49 50 51 52 53 53 54 54 55 55 56 56 56 55 55 55 55 54 54 54 54 53 52 52 52 52 52 52 52 52 51 49 48 48 50 51 52 53 54 53 53 52 52 52 52 51 51 51 51
50 51 52 52 53 54 55 56 56 57 57 57 57 57 57 57 57 56 56 56 56 56 56 56 55 54 54 53 53 52 52 52 53 53 52 51 50 51 51 52 53 55 54 54 54 53 53 53 53 52 52 52
53 54 55 55 56 57 57 58 58 59 59 59 59 59 58 58 57 57 57 57 57 57 57 58 57 57 56 55 54 54 54 53 53 54 54 54 52 52 53 53 53 54 55 55 55 54 54 54 54 54 53 53
55 56 56 57 57 58 59 59 60 60 61 61 61 60 59 59 58 57 57 58 58 58 58 59 59 59 58 57 56 55 55 55 55 54 55 55 54 53 54 55 55 55 56 56 56 56 56 55 55 55 54 54
57 57 58 59 59 60 60 60 61 61 62 62 62 61 60 60 59 59 58 58 58 59 59 59 60 60 60 60 58 57 57 56 56 56 56 55 55 55 55 55 55 56 56 56 56 57 57 56 56 56 56 55
58 59 60 60 60 61 61 61 61 61 61 61 61 61 61 61 60 60 60 59 59 59 60 60 60 61 61 61 61 60 59 58 58 58 57 57 56 56 56 56 55 55 55 55 55 55 56 56 57 57 57 57
60 61 61 61 61 60 60 60 60 60 60 60 60 61 61 61 61 61 60 60 60 59 60 60 60 61 61 62 62 62 61 60 59 59 59 59 57 57 57 57 56 55 54 55 55 54 55 56 56 57 58 58
61 61 61 61 60 60 60 60 60 60 60 60 60 60 60 60 60 60 61 61 60 60 60 60 60 60 61 61 62 63 62 62 61 61 60 60 59 58 57 57 57 56 56 56 56 55 53 53 55 56 57 59
61 61 61 61 61 60 60 60 59 59 59 59 59 59 59 59 59 60 61 61 61 61 60 60 60 60 60 61 62 63 64 63 63 62 62 61 61 60 59 58 58 57 57 57 57 55 52 51 52 55 57 59
60 60 60 60 60 60 60 60 59 59 59 59 59 59 59 58 59 59 60 60 61 61 61 60 60 59 60 61 62 63 64 64 64 64 63 63 63 62 61 60 59 59 58 58 58 58 55 51 51 53 54 55
58 58 59 59 59 59 59 59 58 58 58 58 58 58 58 58 58 58 59 59 59 60 60 60 59 59 59 60 61 62 63 64 65 65 65 64 64 64 63 62 61 60 59 59 59 60 59 56 53 51 51 51
56 55 55 56 56 56 56 56 55 55 55 55 55 55 55 55 56 56 57 57 58 58 58 59 59 59 58 59 60 61 62 63 64 65 66 65 65 65 64 64 63 62 61 60 60 61 61 60 57 54 52 52
Wind_Direction
270 270 269 268 267 266 264 263 262 263 263 262 261 260 260 259 259 257 256 255 254 254 254 253 252 252 251 250 251 251 250 250 251 250 248 246 245 245 244 243 242 242 239 237 239 241 241 238 235 234 234 233
272 272 271 270 268 267 265 263 263 263 263 263 262 261 260 260 259 258 257 256 255 254 253 252 252 252 252 251 250 251 251 251 251 250 248 247 246 245 244 243 242 242 239 237 238 240 240 238 236 235 234 234
273 273 272 271 270 269 267 265 263 263 263 263 262 262 261 260 260 258 257 256 255 254 253 252 252 251 252 252 250 250 250 251 251 250 250 248 247 245 244 243 242 242 239 237 237 238 239 237 235 234 234 234
275 274 273 272 271 271 269 268 266 264 264 263 262 263 262 261 259 259 258 256 255 254 254 252 252 251 251 251 250 249 249 250 250 250 250 249 248 245 244 243 242 241 238 236 237 239 239 237 235 234 233 233
276 275 273 272 271 271 270 269 268 267 266 265 264 264 264 261 260 259 258 257 256 255 254 253 252 251 251 250 250 249 249 248 249 249 250 249 248 245 244 243 242 241 238 237 238 239 238 236 236 234 233 233
277 277 275 273 272 271 270 270 269 269 268 267 267 266 265 263 261 260 259 258 257 255 254 253 252 251 251 250 249 249 249 248 248 248 248 249 248 246 244 243 242 241 238 237 237 238 238 237 237 235 234 233
278 278 276 275 273 271 270 270 269 269 269 269 269 268 267 266 264 262 260 259 258 257 256 254 253 251 250 250 249 249 249 248 247 247 247 248 249 246 245 244 242 240 238 237 236 237 238 237 237 236 235 234
279 279 278 276 274 272 271 270 270 269 268 268 268 268 268 267 266 264 262 261 259 258 257 256 254 253 251 249 248 248 249 248 247 247 247 247 249 247 245 244 242 240 238 237 236 236 238 238 237 236 236 235
280 279 279 278 277 274 273 271 270 269 269 268 268 268 267 267 266 265 264 262 261 259 258 257 256 254 252 250 249 248 248 248 247 247 247 246 248 248 246 244 241 239 237 236 236 237 238 238 237 237 236 236
280 280 279 279 278 276 274 273 272 270 270 269 269 268 268 267 266 265 265 264 262 261 260 258 257 255 254 252 250 249 248 247 247 247 247 246 246 246 246 245 242 240 237 236 237 238 238 238 238 237 236 236
281 280 279 278 279 277 275 274 273 272 271 270 269 269 268 268 267 265 264 264 263 262 261 259 258 257 255 253 252 251 250 248 247 247 246 245 245 244 244 244 244 242 239 237 237 238 238 239 239 238 237 236
281 280 279 279 278 277 276 275 274 273 272 272 270 269 269 268 267 266 264 263 263 262 261 260 258 258 257 255 253 252 251 249 248 247 246 245 244 244 243 243 243 242 240 238 237 238 238 238 239 239 238 237
280 280 279 278 278 278 277 275 274 274 273 273 272 270 269 268 267 266 265 264 263 262 260 260 259 258 257 256 254 253 251 250 249 247 246 245 244 244 243 242 242 241 240 238 238 238 238 238 238 238 238 237
279 279 278 278 278 277 277 275 274 273 273 273 272 271 271 270 269 268 266 265 264 262 260 259 258 258 257 256 255 254 252 250 249 248 247 245 244 244 243 243 241 241 240 239 238 238 239 238 238 238 238 237
278 277 277 276 276 276 275 274 272 271 271 271 271 271 271 271 270 269 267 266 264 263 261 259 258 257 256 255 255 254 253 251 250 248 247 246 245 244 244 243 242 241 240 239 239 238 239 239 238 238 238 237
278 277 276 275 275 274 273 273 272 271 270 270 270 270 270 270 270 269 268 267 265 264 262 260 258 256 255 254 254 254 253 252 251 249 248 247 246 245 244 243 242 241 241 240 239 238 238 238 238 238 238 237
277 276 276 275 274 273 273 272 271 271 271 270 270 270 269 269 268 267 266 265 265 264 262 261 259 257 255 254 253 253 253 252 251 250 248 247 245 245 244 243 242 241 241 240 240 239 238 238 238 238 238 237
277 276 276 275 275 274 273 272 271 271 270 270 270 270 270 269 268 266 265 263 262 262 261 260 259 258 256 255 253 252 252 251 251 250 249 247 246 245 244 243 242 242 241 241 240 239 239 238 238 238 238 238
277 277 276 275 274 274 274 273 272 271 271 270 270 270 270 269 268 266 264 263 261 260 259 258 258 258 257 256 255 253 252 251 250 249 248 248 247 245 244 243 242 242 241 240 240 239 239 239 238 238 238 238
278 277 277 276 275 274 274 273 273 273 272 272 271 270 269 268 267 266 264 263 261 258 257 257 256 256 256 256 255 254 252 251 249 249 248 247 246 245 245 244 242 241 241 240 240 239 239 239 238 238 238 238
279 278 278 277 277 276 275 274 273 273 272 272 272 271 270 269 267 266 264 263 261 259 257 256 255 255 255 255 255 254 253 251 249 249 249 248 246 245 244 244 243 241 241 240 240 239 238 238 238 238 238 238
280 279 279 279 278 277 276 276 274 274 273 272 272 271 271 270 268 266 265 263 262 260 259 257 256 255 255 254 254 253 252 251 250 249 249 248 247 246 245 244 243 242 241 241 240 239 238 238 238 238 238 238
281 281 280 280 279 278 277 276 276 275 274 273 272 272 271 269 268 266 265 263 262 260 259 258 257 256 255 254 253 252 252 251 251 250 249 248 248 247 246 244 244 243 242 241 240 239 238 237 237 237 237 237
283 282 282 281 280 279 278 277 277 276 275 274 273 272 270 269 267 266 264 263 262 260 259 258 257 256 255 254 253 252 251 251 250 249 249 249 248 247 246 245 244 243 243 242 240 238 237 237 237 236 236 236
284 284 283 282 281 280 279 278 277 276 275 274 273 271 270 268 267 265 264 262 261 259 258 258 257 256 255 254 253 252 251 250 250 249 248 248 248 247 246 245 244 243 243 241 239 238 238 237 237 236 235 235
286 285 283 282 281 280 280 279 277 276 275 274 273 271 270 267 266 264 263 261 260 259 258 257 256 256 255 254 253 252 251 250 249 249 248 248 247 247 246 244 243 242 242 240 239 239 239 238 237 237 235 235
286 284 283 282 281 280 279 278 277 276 275 274 273 271 269 267 265 264 263 261 260 259 258 257 256 255 255 253 252 251 251 250 249 248 247 247 246 246 246 244 243 241 240 240 240 239 239 238 237 236 236 235
286 283 282 281 280 279 278 277 276 276 275 274 273 271 269 267 266 265 263 261 260 259 258 257 256 255 253 252 251 250 250 249 248 247 246 245 245 245 245 244 243 241 240 239 239 239 238 238 237 236 235 235
286 284 283 282 280 279 278 278 277 276 276 274 273 271 268 267 266 265 264 262 261 259 257 256 255 254 253 251 251 250 249 248 247 246 245 244 244 244 244 243 243 242 240 239 238 238 237 237 237 237 236 236
287 285 284 282 281 279 279 278 277 277 276 275 273 270 268 267 266 265 264 262 261 259 257 256 255 253 252 251 250 249 249 248 247 245 244 244 243 243 242 242 242 241 240 239 238 238 237 237 237 236 235 235
288 286 284 283 281 280 279 278 277 277 276 275 272 270 268 267 266 265 264 263 261 259 257 256 254 253 252 251 250 249 248 247 247 246 245 243 242 242 241 241 240 240 240 239 238 238 238 238 237 236 235 234